{"data":{"norad_id":59835,"epoch":"2026-09-21T16:20:23.321472Z","epoch_age_seconds":72464,"freshness":"FRESH","line1":"1 59835U 24097A   26264.68082548 -.00002946  00000+0 -97532-4 0  9995","line2":"2 59835  43.0052 247.2947 0002695 275.3264  84.7280 15.27586714131899","mean_motion":15.27586714,"eccentricity":0.0002695,"inclination_deg":43.0052,"raan_deg":247.2947,"arg_perigee_deg":275.3264,"mean_anomaly_deg":84.728,"bstar":-9.7532e-5,"rev_number":13189,"period_min":94.266334395469,"perigee_km":481.1799077471,"apogee_km":484.87807621678,"semimajor_km":6861.1659919819,"source":"CELESTRAK","updated_at":"2026-09-22T09:00:49.075824Z"}}